Torna al catalogo

COSMOS 2251 DEB

AttivoVLEO
NORAD 35442·DEBRIS·🇷🇺 Russia

Lanciato Jun 16, 1993 da Plesetsk Cosmodrome

Loading…

Prossimi Passaggi (prossime 24 ore)

TLE

AggiornatoSource: Space-Track

Epoca: Sep 14, 2026, 00:25 UTC

1 35442U 93036AKL 26257.01777354  .00015524  00000-0  14005-2 0  9994
2 35442  74.0199 267.4627 0007680 270.3122  89.7183 14.95515277914547

Traccia COSMOS 2251 DEB in tempo reale con AllMySat

Download on the App Store